Home > Weather > Ulm > Past weeks

Flag for Germany Weather for the Past 2 Weeks in Ulm, Baden-Württemberg, Germany

Now
37 °F

Scattered clouds.


Feels Like: 37 °F
Forecast: 34 / 44 °F
Wind: 2 mph from East

Location: Laupheim Airport

Current Time: Feb 12, 2016 at 1:41:26 PM

Latest Report: Feb 12, 2016 at 12:20 PM


Visibility: N/A

Pressure: 29.53 "Hg

Humidity: 70%

Dew point: 28 °F

Location of UlmLocation

Historic Weather in Ulm — Graph

°F

Ulm Temperature Yesterday

Maximum temperature yesterday: 41 °F (at 1:20 PM)
Minimum temperature yesterday: 30 °F (at 8:20 PM)
Average temperature yesterday: 35 °F

High & Low Weather Summary for the Past Weeks

 TemperatureHumidityPressure
High55 °F (Feb 1, 11:49 AM)100% (Jan 28, 7:20 PM)30.42 "Hg (Jan 28, 7:20 PM)
Low28 °F (Feb 6, 2:20 AM)49% (Feb 11, 2:20 PM)29.24 "Hg (Feb 9, 7:20 PM)
Average40 °F80%29.97 "Hg
* Reported Jan 28 12:20 PM — Feb 12 12:20 PM, Ulm, Weather by CustomWeather, © 2016

Note: Actual official high and low records may vary slightly from our data, if they occured in-between our weather recording intervals... More about our weather records

Advertising

Ulm Weather History for the Previous 24 Hours

 ConditionsComfort  
Time TempWeatherWind HumidityBarometerVisibility
12:20 PM
Fri, Feb 12
37 °FScattered clouds.2 mph70%29.53 "HgN/A
11:20 AM37 °FScattered clouds.5 mph70%29.56 "HgN/A
10:20 AM36 °FScattered clouds.3 mph75%29.59 "HgN/A
9:20 AM32 °FPartly sunny.3 mph87%29.62 "Hg5 mi
8:20 AM30 °FIce fog.5 mph93%29.65 "Hg3 mi
7:47 AM30 °FIce fog.3 mph100%29.65 "Hg2 mi
7:20 AM30 °FLight snow. Ice fog.3 mph100%29.65 "Hg2 mi
6:48 AM32 °FSnow. Ice fog.5 mph87%29.68 "Hg1 mi
6:20 AM32 °FLight snow. Ice fog.3 mph87%29.68 "Hg3 mi
5:20 AM32 °FPassing clouds.6 mph80%29.68 "HgN/A
4:20 AM32 °FLight snow. Passing clouds.7 mph80%29.68 "HgN/A
3:20 AM32 °FPassing clouds.3 mph80%29.68 "HgN/A
2:20 AM32 °FPartly cloudy.2 mph75%29.68 "HgN/A
1:20 AM32 °FLight snow. Partly cloudy.3 mph75%29.71 "HgN/A
12:20 AM30 °FPassing clouds.1 mph80%29.71 "HgN/A
11:20 PM
Thu, Feb 11
30 °FPassing clouds.2 mph80%29.71 "HgN/A
10:20 PM30 °FPassing clouds.No wind80%29.71 "HgN/A
10:00 PM30 °FPassing clouds.2 mph86%29.71 "HgN/A
9:20 PM30 °FPartly cloudy.2 mph80%29.71 "HgN/A
8:20 PM30 °FPassing clouds.2 mph75%29.71 "HgN/A
7:20 PM32 °FPassing clouds.2 mph75%29.71 "HgN/A
6:20 PM34 °FPartly cloudy.3 mph70%29.71 "HgN/A
5:20 PM37 °FBroken clouds.6 mph56%29.71 "HgN/A
4:20 PM39 °FPartly sunny.10 mph56%29.71 "HgN/A
3:20 PM39 °FPartly sunny.10 mph52%29.71 "HgN/A
2:20 PM41 °FPartly sunny.14 mph49%29.71 "HgN/A
1:20 PM41 °FPartly sunny.17 mph53%29.74 "HgN/A
Weather by CustomWeather, © 2016

See weather overviewHow to use our weather pages